Helicity
58 64 56 91 105 97 67 37 86 122 49 77 70 63 60 109 99 90 27 100 126 103 61 50 60 60 64 60 63 63 63 54 53 67 64 63 64 59 48 44 56 69 101 99 66 60 68 58 50
67 74 93 108 134 126 60 36 64 18 75 86 110 100 120 106 50 20 79 132 136 133 72 62 67 73 80 71 66 57 46 38 43 43 45 62 53 50 44 39 37 52 69 74 67 63 53 35 28
80 75 134 133 128 95 54 48 162 73 105 88 57 49 84 135 56 -19 83 152 130 138 76 67 74 75 69 65 60 44 35 32 28 36 87 68 53 45 33 33 32 41 46 58 56 47 41 34 30
132 153 148 162 79 40 37 27 5 89 104 86 80 82 95 62 -5 19 132 179 120 110 103 82 77 76 88 81 62 44 35 29 22 60 58 51 47 37 33 32 32 34 41 43 45 45 41 33 29
172 180 142 107 15 1 -3 75 72 74 99 39 73 84 75 148 108 59 148 140 135 111 102 87 83 103 97 88 67 55 50 32 34 41 47 45 39 35 32 30 31 33 34 38 36 29 22 18 17
198 164 137 75 25 24 16 33 58 82 114 120 60 41 41 32 82 38 108 186 192 116 90 78 106 107 104 86 71 60 58 52 53 43 34 35 37 36 29 25 24 27 26 30 26 23 21 21 19
161 174 111 86 45 55 26 119 123 121 95 84 90 73 100 94 39 47 134 182 190 174 126 104 105 100 97 86 77 67 62 62 71 63 49 31 21 23 30 24 18 20 16 11 14 14 15 15 15
171 182 124 97 42 18 7 40 54 200 149 140 83 83 96 58 28 35 115 185 184 142 115 137 134 128 119 93 87 78 73 66 59 64 78 66 43 17 27 29 15 18 20 17 16 18 19 13 13
140 199 128 102 69 68 47 78 81 129 174 198 215 56 73 62 82 101 136 225 182 134 109 121 144 139 130 120 98 96 90 85 82 85 63 47 20 -5 2 51 33 27 20 21 18 19 19 23 11
228 189 141 138 61 52 71 37 114 129 159 180 153 107 85 84 97 124 116 172 175 136 113 110 119 123 131 124 122 116 107 94 88 70 47 30 23 22 66 62 47 35 29 24 18 20 36 35 19
182 172 137 103 67 62 61 121 125 254 264 169 123 145 100 83 72 90 102 114 120 133 125 116 103 83 103 148 148 144 133 112 85 69 44 38 41 57 85 63 46 36 31 21 18 41 45 40 38
187 142 95 82 52 96 91 131 221 206 285 303 226 176 162 110 72 77 80 81 80 99 96 168 137 108 105 168 164 141 128 112 92 56 39 87 88 118 95 65 46 35 41 30 48 39 54 86 78
149 137 126 135 117 111 101 106 137 178 243 261 148 144 228 212 159 126 92 89 78 103 91 117 153 166 184 227 171 153 107 119 94 78 47 86 95 81 98 75 56 45 72 52 72 83 107 97 93
133 119 169 156 123 145 65 53 92 114 191 130 82 14 129 233 219 171 160 141 150 134 152 122 155 199 258 244 207 170 120 106 102 98 45 77 100 77 84 85 68 85 115 124 149 160 130 114 94
201 194 164 110 58 68 84 26 103 72 65 61 37 46 9 147 204 206 152 164 185 148 159 203 197 178 301 258 224 187 129 92 103 111 102 94 106 87 98 128 146 184 207 240 231 196 157 139 113
174 120 90 61 80 90 136 48 52 39 95 118 90 61 13 -21 124 135 120 133 162 182 139 180 230 235 242 279 231 199 131 115 155 168 150 137 111 114 163 188 188 217 232 224 207 185 183 153 127
146 115 71 115 39 84 111 54 9 58 74 109 95 98 84 -9 -15 35 137 -13 -8 145 182 175 227 269 238 216 242 216 180 208 239 234 199 180 194 215 242 231 203 215 226 214 197 192 167 156 130
103 116 153 126 137 96 107 100 92 76 62 58 78 97 86 84 56 -19 79 135 123 77 152 231 201 242 290 274 202 187 227 242 247 260 214 223 278 288 323 256 227 239 256 225 199 183 193 154 128
124 177 163 113 189 137 92 60 62 54 58 21 15 54 45 31 27 75 82 95 126 149 132 153 209 247 327 382 325 240 253 281 277 300 277 301 339 319 325 283 290 274 268 210 202 211 186 185 133
133 93 66 35 93 69 65 17 9 56 102 106 51 70 42 30 36 17 33 55 90 116 126 149 144 209 291 301 336 340 350 376 314 312 363 396 459 433 379 342 315 288 296 250 212 212 205 172 145
88 64 53 51 -3 -5 1 23 53 64 43 12 1 36 73 84 91 82 79 71 60 79 104 115 163 126 251 425 565 625 644 531 477 407 477 497 538 500 433 380 360 329 317 261 228 203 205 179 161
80 73 65 67 50 58 39 64 61 41 39 32 33 36 39 74 121 145 129 134 104 91 94 102 102 132 147 249 385 517 537 506 468 522 587 632 547 569 522 468 427 377 343 291 268 233 208 183 135
60 60 62 67 61 33 47 80 4 -46 10 -13 23 -9 -1 14 46 27 50 50 100 147 142 136 106 119 152 202 302 402 536 598 598 636 663 669 618 563 492 450 425 373 354 320 306 282 235 188 154
68 69 57 45 43 73 55 87 21 -21 -51 -14 47 69 -6 11 52 73 65 73 75 87 105 126 135 123 134 204 317 450 576 656 685 665 660 653 620 567 557 501 448 411 369 307 264 289 270 208 163
91 76 87 58 63 32 90 59 113 13 -39 -20 9 13 66 43 169 176 152 136 132 152 150 124 100 116 128 170 352 485 540 606 607 597 618 602 624 582 556 536 480 416 352 315 309 279 262 203 148
87 55 63 38 42 46 82 35 -7 -54 -36 20 45 66 82 66 76 68 101 127 166 179 155 96 69 144 129 265 396 471 563 642 603 566 549 550 542 521 514 528 451 405 372 306 257 267 248 195 141
56 53 79 85 79 94 91 109 73 32 137 158 210 252 241 187 112 127 210 195 158 145 118 69 102 105 168 319 523 541 572 526 470 476 471 457 458 469 492 460 436 370 317 293 239 256 226 159 103
61 67 99 102 57 55 71 94 83 61 80 97 110 133 161 131 112 143 151 218 206 172 88 84 64 110 214 395 457 553 523 471 439 414 384 388 413 418 483 464 413 326 309 235 248 235 189 136 107
80 76 93 112 108 71 62 37 76 116 86 41 57 67 48 59 125 205 208 201 169 118 72 59 47 136 300 446 458 471 455 389 384 335 330 343 392 428 451 405 381 355 249 272 213 183 141 121 105
104 102 109 109 77 121 148 149 32 39 125 82 -13 -62 -11 81 129 162 115 148 184 110 57 63 103 322 413 421 430 422 432 379 347 294 290 369 412 405 395 364 324 315 314 326 170 155 102 97 103
Wind_Speed
48 49 46 39 40 39 42 41 47 50 36 33 33 31 33 35 33 37 19 10 16 16 15 18 20 22 22 23 23 23 23 23 22 23 25 26 29 30 32 31 29 29 29 31 30 28 25 25 27
43 43 37 39 44 46 49 52 64 52 31 36 38 41 37 34 26 13 15 13 18 18 14 16 19 21 22 22 23 23 23 23 22 21 22 25 28 30 30 30 28 26 26 26 26 25 25 26 27
41 35 40 43 49 48 45 40 54 28 29 30 38 40 39 31 21 8 10 18 19 18 15 16 16 17 20 21 22 22 23 22 21 21 23 24 26 28 29 29 27 25 24 24 24 25 25 27 28
37 37 42 53 54 51 51 51 39 31 31 33 32 37 28 31 13 12 10 16 18 19 16 17 15 15 16 17 20 21 22 21 20 21 21 23 24 26 28 28 28 27 25 25 25 25 26 26 27
36 39 52 56 63 55 58 55 57 34 33 32 35 34 30 29 12 6 8 13 15 15 16 16 15 14 14 15 17 20 21 20 19 19 21 22 22 24 27 28 28 27 27 27 27 26 26 27 27
40 40 53 62 57 52 64 59 53 38 35 35 31 37 32 11 11 4 3 5 11 13 13 13 13 13 13 14 16 18 20 19 19 19 19 20 21 23 25 26 27 27 27 27 27 27 27 27 28
45 50 65 58 57 58 59 58 52 36 36 39 40 36 25 18 10 6 1 4 8 9 8 6 6 8 9 11 14 17 18 18 18 18 19 18 19 20 21 23 25 25 26 26 26 26 26 27 27
45 52 61 62 65 66 59 53 53 32 29 29 34 31 19 11 5 6 5 5 6 6 4 3 2 0 4 7 10 13 15 16 16 16 18 19 19 18 17 19 21 23 25 26 25 25 25 26 28
48 62 69 67 66 61 65 62 49 35 33 30 33 26 9 4 9 12 7 4 6 6 5 4 5 3 1 3 5 7 10 12 14 14 14 16 18 19 13 15 18 21 23 24 25 25 26 27 29
54 69 71 57 66 66 63 56 55 44 40 38 33 21 11 6 9 8 6 6 8 9 9 8 8 8 6 5 4 5 6 7 8 9 10 13 15 20 19 16 17 19 21 23 24 25 27 28 29
59 71 68 69 63 57 61 64 55 50 48 46 41 29 29 17 15 11 10 12 12 10 10 12 11 9 8 8 7 8 8 7 6 4 4 7 11 13 16 15 16 18 19 22 24 27 28 29 29
68 64 74 71 71 67 62 61 65 58 55 57 48 47 43 32 20 17 17 18 16 15 14 14 15 13 11 9 8 9 10 10 9 7 3 4 10 6 10 13 13 14 16 19 23 25 28 31 32
68 69 72 68 70 65 62 65 69 77 69 67 70 61 54 50 37 32 30 27 21 21 19 18 17 16 15 13 13 12 11 10 9 5 3 4 3 3 8 9 10 11 15 16 20 22 28 30 34
47 58 60 64 68 67 69 71 68 64 66 77 76 83 66 62 61 58 43 39 32 23 23 22 20 17 17 15 14 11 11 11 11 9 7 4 3 5 8 9 10 14 11 14 17 23 28 32 34
45 56 61 67 67 71 65 80 77 72 73 86 90 86 92 68 70 69 63 47 41 29 24 27 23 20 19 18 17 13 12 11 11 11 8 7 6 6 7 9 10 13 15 18 21 24 28 32 35
50 54 70 61 64 66 56 87 58 57 59 67 79 74 84 102 80 81 86 78 68 54 29 29 27 25 24 21 19 16 15 14 12 11 10 8 7 5 4 6 10 16 18 19 22 24 28 30 35
53 66 64 63 56 50 47 69 62 61 68 68 58 53 52 43 99 94 64 49 44 60 47 31 32 30 28 27 25 22 19 16 16 12 11 10 10 9 8 8 11 14 16 19 21 27 27 30 35
59 62 58 61 51 45 57 73 67 69 72 77 72 65 55 55 57 82 46 56 51 50 63 50 36 35 33 31 29 27 24 21 19 17 15 12 11 12 11 11 12 12 14 18 21 24 29 31 36
52 60 61 62 55 63 70 78 77 78 80 84 83 77 74 70 74 64 63 66 72 68 66 52 47 38 37 39 36 33 32 29 26 23 19 16 14 14 14 13 10 9 11 13 16 21 27 35 37
59 64 63 62 53 63 76 94 92 92 93 78 83 75 73 75 77 78 74 72 65 63 65 68 58 42 40 39 40 43 38 37 33 27 23 20 17 18 17 15 11 10 12 13 14 17 25 33 36
52 57 58 61 65 64 73 89 72 62 60 61 67 69 67 69 72 71 70 69 70 69 68 64 59 51 50 45 40 41 40 40 39 32 27 25 22 19 17 16 15 13 13 13 14 17 23 30 35
49 44 47 49 53 63 51 77 65 66 70 67 61 58 58 59 62 65 66 69 70 73 71 66 60 55 47 47 47 46 44 44 45 41 34 26 22 21 18 17 16 14 13 13 16 17 23 25 28
35 32 38 45 52 60 56 63 64 55 58 59 55 58 56 55 51 56 57 58 60 61 64 64 67 62 57 50 51 50 51 47 43 41 35 31 27 25 23 19 18 16 14 15 15 19 23 27 28
23 33 40 42 46 60 55 49 62 49 41 44 46 52 50 54 49 48 50 51 52 54 55 62 63 65 67 60 57 56 52 49 45 44 43 38 33 28 24 21 19 17 14 14 14 17 24 27 27
27 31 40 48 48 53 44 49 61 52 59 66 72 71 53 47 49 51 48 49 50 53 57 62 64 69 64 64 59 58 55 52 49 49 48 41 38 33 27 23 20 18 16 14 16 19 22 25 27
30 31 37 50 52 57 53 57 58 53 62 65 53 52 53 52 52 51 50 49 51 54 58 64 68 62 62 56 56 54 51 51 50 49 50 47 41 35 25 22 19 16 15 14 15 20 25 26 29
29 32 31 47 51 60 51 58 65 64 54 51 50 55 62 64 57 51 45 50 56 61 67 76 76 61 48 45 49 49 48 48 48 46 47 46 40 32 24 20 18 16 15 14 15 21 23 27 30
28 23 36 39 52 61 60 65 57 58 55 58 63 65 69 67 53 46 52 54 60 67 73 74 71 56 39 35 38 47 46 45 42 39 40 39 34 28 22 17 17 16 16 13 18 22 23 27 33
27 34 35 38 38 56 70 50 52 41 52 65 72 75 78 81 69 60 50 51 60 67 69 73 64 50 39 32 31 39 42 39 36 33 32 31 28 24 19 16 14 14 12 16 22 24 27 32 37
17 27 24 37 41 41 52 70 37 42 54 84 98 105 82 68 55 50 46 53 62 69 71 70 52 39 36 30 27 34 35 34 32 30 29 26 24 19 15 13 12 13 14 19 26 25 30 34 41
Wind_Direction
285 286 296 298 284 284 283 285 273 279 290 298 303 302 301 300 297 292 335 75 85 98 90 87 81 68 61 55 47 39 31 28 30 36 33 30 28 24 19 22 28 28 26 33 41 38 27 18 12
289 291 296 287 277 274 275 271 268 277 295 296 295 288 295 296 316 353 0 85 101 105 95 92 86 71 64 53 45 40 35 32 30 34 34 36 26 20 21 26 27 28 25 23 23 22 15 12 6
285 291 282 277 271 268 272 282 297 287 304 305 297 294 290 300 321 26 26 101 97 106 99 97 86 74 67 58 46 38 31 32 32 40 45 32 25 24 23 23 25 24 21 19 15 9 6 4 3
280 280 281 269 266 268 264 272 293 296 304 306 303 296 303 304 336 336 98 109 105 109 109 106 91 76 60 49 43 34 34 35 40 46 36 31 34 31 27 26 27 27 24 19 13 9 6 6 5
274 275 264 265 262 266 262 272 280 294 298 301 293 294 307 308 340 37 109 121 119 115 116 114 101 83 64 48 38 34 34 40 49 47 43 39 38 32 30 30 30 29 27 24 18 14 9 5 2
264 267 262 258 263 268 262 270 279 286 292 297 300 295 302 336 339 343 121 116 129 127 121 117 108 90 76 67 54 43 40 41 55 52 39 46 45 40 34 31 29 26 21 18 15 12 9 8 6
258 260 256 262 264 266 265 273 284 282 287 286 292 299 300 305 332 345 276 140 139 137 131 124 112 98 81 70 64 60 57 57 54 49 45 47 41 40 36 33 30 26 19 12 14 14 12 10 8
259 264 260 260 260 264 266 284 293 274 280 291 300 299 296 310 348 333 309 159 155 167 196 237 231 115 68 71 72 61 59 63 66 53 48 47 42 37 44 41 31 24 20 17 14 13 11 7 5
257 258 256 256 259 264 267 278 293 288 278 289 295 306 310 352 314 303 291 241 227 231 231 215 212 226 292 15 39 51 55 60 61 57 59 52 37 22 45 54 41 27 18 13 9 4 2 360 354
252 254 257 264 262 266 271 279 281 278 279 279 287 305 311 303 298 287 254 244 228 222 233 217 207 211 231 282 306 336 4 22 42 51 64 47 35 24 43 65 46 26 16 9 3 358 354 349 343
255 256 259 262 266 276 274 272 278 277 273 273 277 285 285 273 265 246 250 249 243 233 234 208 205 209 213 264 268 297 314 328 341 3 36 52 17 25 35 40 26 22 12 1 354 346 347 349 347
258 262 260 263 264 274 276 275 269 273 273 278 282 281 294 277 258 246 241 249 243 235 229 223 206 214 222 255 252 274 289 293 301 308 302 334 353 59 26 17 17 17 13 1 355 346 345 342 342
258 262 264 266 268 275 277 273 271 265 272 275 272 276 281 280 280 277 274 268 242 231 225 221 213 228 235 241 255 267 272 277 273 274 273 282 331 348 349 359 15 14 9 1 357 354 347 343 342
268 267 268 269 270 276 276 273 272 273 276 269 270 263 273 274 270 271 277 279 272 242 228 222 219 225 223 231 229 244 262 264 258 251 226 240 260 299 322 331 339 347 14 9 1 348 340 336 337
268 269 273 272 272 272 280 271 268 275 276 267 266 268 262 273 270 268 270 277 280 274 234 220 221 224 219 220 218 231 247 248 249 247 223 238 268 281 306 330 344 344 345 347 344 342 339 334 333
267 273 268 276 274 273 270 264 279 280 278 277 272 273 268 253 268 264 260 265 269 275 263 228 228 228 223 225 232 241 241 231 221 223 245 246 238 243 290 312 325 332 334 335 335 334 334 333 331
267 266 271 277 277 277 264 274 277 280 274 281 281 280 277 257 254 256 269 222 244 271 272 241 237 233 229 228 238 243 241 237 218 230 235 248 257 253 268 295 314 328 332 335 332 328 329 330 328
265 267 272 273 285 275 275 273 279 279 277 276 277 280 280 278 273 226 259 269 268 261 267 268 240 233 236 242 243 246 242 248 237 239 230 233 250 261 268 289 302 318 329 333 334 330 328 329 328
264 272 274 274 283 282 278 277 278 277 276 275 276 276 276 277 273 275 274 273 268 267 266 261 263 242 238 249 248 248 245 247 246 245 232 229 243 254 265 274 280 301 318 332 339 338 326 324 330
267 271 274 279 284 288 283 275 277 275 273 277 276 278 277 276 274 273 275 274 275 272 268 267 265 251 236 238 249 260 255 258 255 251 246 242 241 256 263 259 258 280 308 322 331 333 329 324 329
270 272 277 279 286 290 290 281 287 288 283 281 279 279 279 277 277 277 276 275 275 275 272 268 267 267 256 245 251 264 262 263 264 257 253 256 253 258 259 252 254 271 295 305 320 325 326 322 327
272 283 282 286 288 282 300 282 287 287 284 288 287 285 286 284 282 281 280 279 277 275 274 274 266 263 262 252 245 245 246 248 258 255 257 250 256 264 265 260 258 267 292 301 316 327 327 329 325
281 292 291 291 290 290 290 286 290 295 296 295 297 292 290 290 290 288 286 284 285 281 273 273 272 264 259 254 246 243 249 251 254 254 250 252 260 267 272 264 263 265 285 301 313 322 325 325 326
296 296 295 296 296 287 292 286 293 301 308 311 309 315 302 298 297 298 297 294 292 291 286 276 273 272 264 255 250 244 242 246 247 249 251 256 262 267 269 268 265 267 282 294 309 324 328 325 330
290 298 292 289 290 290 304 293 292 302 306 302 298 304 306 308 304 302 300 298 298 299 295 288 280 273 270 259 250 246 244 243 242 245 249 252 259 264 265 264 262 265 278 293 308 319 328 329 330
282 295 293 289 292 295 301 295 303 311 309 311 313 316 313 309 306 302 303 303 302 301 299 295 287 280 271 259 248 246 243 246 249 252 252 256 259 261 260 260 263 264 277 293 307 321 325 328 328
293 294 313 300 303 300 304 306 309 313 323 330 324 322 320 317 311 308 308 305 302 300 295 289 284 281 278 255 247 242 242 243 249 254 255 255 259 259 259 255 254 266 273 291 304 318 324 327 330
306 321 307 311 306 304 307 310 314 319 320 322 319 321 323 326 321 312 307 305 303 300 296 293 285 274 272 252 241 243 242 246 251 254 252 251 252 249 251 250 259 266 279 294 309 318 324 326 327
295 303 313 318 320 312 309 319 331 332 332 328 322 322 319 317 313 312 308 307 303 302 298 292 283 271 262 251 244 242 245 247 252 249 248 244 243 242 244 249 254 266 273 303 313 319 325 326 329
312 310 316 321 326 324 322 309 342 332 331 324 319 314 317 318 311 313 310 308 306 302 296 287 282 267 255 248 244 243 243 245 244 241 241 236 234 234 240 247 257 269 293 312 309 326 324 330 329